Location: Tuebingen alte Sternwarte
(48.5376°N, 9.0555°E)
Time: 10:55:56
(UTC+02:00)

Envisat - Pass Details

Date: 26 September 2017
Orbit: 764 x 766 km, 98.2° (Epoch: 18 October)

Event Time Altitude Azimuth Distance (km) Brightness Sun altitude
Exits shadow 20:43:23 14° 150° (SSE) 2,037 4.8 -15.6°
Maximum altitude 20:47:42 64° 72° (ENE) 850 3.0 -16.3°
Drops below altitude 10° 20:52:45 10° 352° (N) 2,314 5.8 -17.1°
Sets 20:55:05 0° 349° (N) 3,245 6.7 -17.5°
